User: anonymous   Login
Location: Theydon Bois
(51.6750°N, 0.1050°E)
Time: 03:18:18
(UTC+00:00)
Language:

COSMOS 2428 - Orbit

View from above orbital plane
View from above orbital plane
View from above satellite
View from above satellite

Ground track
Ground track

The orbit data is extracted from the following two-line orbital elements,

1 31792U 07029A   17351.85448363  .00000350  00000-0  21585-3 0  9990
2 31792  70.9407  26.6701 0008464 341.8718  18.2099 14.12404641540002
Epoch (UTC): 17 December 2017 20:30:27
Eccentricity: 0.0008464
inclination: 70.9407°
perigee height: 845 km
apogee height: 857 km
right ascension of ascending node: 26.6701°
argument of perigee: 341.8718°
revolutions per day: 14.12404641
mean anomaly at epoch: 18.2099°
orbit number at epoch: 54000

The dashed part of the orbit path shows where the satellite is in the earth's shadow,  

DLR